Location: *
(31.2983°S, 151.4094°E)
Time: 23:12:32
(UTC+00:00)

Cosmos 1437 - Pass Details

Date: 25 August 2019
Orbit: 383 x 388 km, 81.2° (Epoch: 19 September)

Event Time Altitude Azimuth Distance (km) Brightness Sun altitude
Rises 19:36:09 0° 6° (N) 2,259 6.6 -9.8°
Reaches altitude 10° 19:38:11 10° 13° (NNE) 1,414 5.7 -9.4°
Maximum altitude 19:41:07 42° 85° (E) 575 4.1 -8.8°
Drops below altitude 10° 19:44:05 10° 157° (SSE) 1,435 5.7 -8.1°
Sets 19:46:09 0° 164° (SSE) 2,300 6.6 -7.7°
